Weather History for Monroe, MI

Change the Weather History Date:

Saturday, May 18, 2013

  Actual Average Record
Temperature  
Mean Temperature 63 °F -  
Max Temperature 71 °F 72 °F 95 °F (1962)
Min Temperature 55 °F 50 °F 35 °F (2002)
Degree Days  
Heating Degree Days 2    
Growing Degree Days 13 (Base 50)    
Moisture  
Dew Point 48 °F    
Average Humidity 58    
Maximum Humidity 77    
Minimum Humidity 46    
Precipitation  
Precipitation 0.00 in - - ()
Sea Level Pressure  
Sea Level Pressure 30.09 in    
Wind  
Wind Speed 8 mph (East)    
Max Wind Speed 17 mph    
Max Gust Speed 23 mph    
Visibility 10 miles    
Events      
Averages and records for this station are not official NWS values.
T = Trace of Precipitation, MM = Missing Value Source: NWS Daily Summary

Daily Weather History Graph

Daily Weather History Graph

Search for Another Location

Airport:

Trip Planner

Search our weather history database for the weather conditions in past years. The results will help you decide how hot, cold, wet, or windy it might be!

Date:

Astronomy

May. 18, 2013 Rise Set
Actual Time 6:10 AM EDT 8:50 PM EDT
Civil Twilight 5:38 AM EDT 9:22 PM EDT
Nautical Twilight 4:57 AM EDT 10:03 PM EDT
Astronomical Twilight 4:11 AM EDT 10:49 PM EDT
Moon 1:46 PM EDT (5/18) 2:09 AM EDT (5/18)
Length of Visible Light 15h 44m
Length of Day
14h 40m
First Quarter, 55% of the Moon is Illuminated
May 18
First Quarter
May 25
Full
May 31
Last Quarter
Jun 8
New
Jun 16
First Quarter

Hourly Weather History & Observations

Time (EDT) Temp. Dew Point Humidity Pressure Visibility Wind Dir Wind Speed Gust Speed Precip Events Conditions
12:16 AM 57.2 °F 44.6 °F 63% 30.13 in 10.0 mi ENE 4.6 mph - N/A   Clear
12:36 AM 57.2 °F 42.8 °F 59% 30.13 in 10.0 mi ENE 4.6 mph - N/A   Clear
12:56 AM 57.2 °F 42.8 °F 59% 30.13 in 10.0 mi East 5.8 mph - N/A   Clear
1:16 AM 60.8 °F 44.6 °F 55% 30.13 in 10.0 mi East 6.9 mph - N/A   Clear
1:36 AM 60.8 °F 44.6 °F 55% 30.12 in 10.0 mi East 8.1 mph - N/A   Clear
1:51 AM 60.8 °F 46.4 °F 59% 30.12 in 10.0 mi East 11.5 mph 16.1 mph N/A   Clear
2:11 AM 60.8 °F 46.4 °F 59% 30.12 in 10.0 mi East 11.5 mph - N/A   Clear
2:31 AM 60.8 °F 46.4 °F 59% 30.12 in 10.0 mi East 9.2 mph - N/A   Clear
2:52 AM 59.0 °F 46.4 °F 63% 30.11 in 10.0 mi ESE 9.2 mph - N/A   Clear
3:12 AM 59.0 °F 46.4 °F 63% 30.10 in 10.0 mi ESE 10.4 mph - N/A   Scattered Clouds
3:32 AM 59.0 °F 48.2 °F 67% 30.10 in 10.0 mi ESE 9.2 mph - N/A   Scattered Clouds
3:52 AM 59.0 °F 48.2 °F 67% 30.09 in 10.0 mi East 9.2 mph - N/A   Clear
4:12 AM 57.2 °F 48.2 °F 72% 30.10 in 10.0 mi East 6.9 mph - N/A   Clear
4:32 AM 57.2 °F 48.2 °F 72% 30.10 in 10.0 mi East 4.6 mph - N/A   Clear
4:52 AM 55.4 °F 48.2 °F 77% 30.10 in 10.0 mi East 6.9 mph - N/A   Clear
5:12 AM 55.4 °F 48.2 °F 77% 30.10 in 10.0 mi ENE 4.6 mph - N/A   Clear
5:32 AM 55.4 °F 48.2 °F 77% 30.10 in 10.0 mi ENE 6.9 mph - N/A   Clear
5:52 AM 55.4 °F 46.4 °F 72% 30.11 in 10.0 mi NE 3.5 mph - N/A   Mostly Cloudy
6:13 AM 55.4 °F 46.4 °F 72% 30.11 in 10.0 mi NE 3.5 mph - N/A   Mostly Cloudy
6:33 AM 55.4 °F 44.6 °F 67% 30.12 in 10.0 mi NE 5.8 mph - N/A   Overcast
6:53 AM 55.4 °F 44.6 °F 67% 30.13 in 10.0 mi NE 5.8 mph - N/A   Overcast
7:13 AM 57.2 °F 46.4 °F 67% 30.13 in 10.0 mi ENE 6.9 mph - N/A   Overcast
7:33 AM 57.2 °F 46.4 °F 67% 30.14 in 10.0 mi ENE 6.9 mph - N/A   Overcast
7:53 AM 59.0 °F 46.4 °F 63% 30.12 in 10.0 mi East 4.6 mph - N/A   Overcast
8:13 AM 60.8 °F 46.4 °F 59% 30.12 in 10.0 mi ENE 5.8 mph - N/A   Mostly Cloudy
8:33 AM 60.8 °F 46.4 °F 59% 30.13 in 10.0 mi East 6.9 mph - N/A   Overcast
8:54 AM 60.8 °F 48.2 °F 63% 30.12 in 10.0 mi East 8.1 mph - N/A   Scattered Clouds
9:14 AM 64.4 °F 48.2 °F 56% 30.12 in 10.0 mi East 9.2 mph - N/A   Clear
9:34 AM 64.4 °F 48.2 °F 56% 30.12 in 10.0 mi ESE 8.1 mph - N/A   Scattered Clouds
9:54 AM 64.4 °F 48.2 °F 56% 30.12 in 10.0 mi East 10.4 mph - N/A   Mostly Cloudy
10:14 AM 64.4 °F 48.2 °F 56% 30.12 in 10.0 mi ESE 8.1 mph - N/A   Mostly Cloudy
10:34 AM 66.2 °F 48.2 °F 52% 30.11 in 10.0 mi ESE 6.9 mph - N/A   Scattered Clouds
10:54 AM 66.2 °F 48.2 °F 52% 30.11 in 10.0 mi ESE 9.2 mph - N/A   Scattered Clouds
11:14 AM 68.0 °F 50.0 °F 52% 30.12 in 10.0 mi East 6.9 mph - N/A   Clear
11:54 AM 69.8 °F 48.2 °F 46% 30.12 in 10.0 mi East 10.4 mph - N/A   Clear
12:14 PM 71.6 °F 51.8 °F 50% 30.11 in 10.0 mi ESE 9.2 mph - N/A   Clear
12:35 PM 69.8 °F 53.6 °F 56% 30.11 in 10.0 mi ESE 9.2 mph - N/A   Clear
12:55 PM 69.8 °F 51.8 °F 53% 30.11 in 10.0 mi ESE 10.4 mph - N/A   Clear
1:15 PM 68.0 °F 51.8 °F 56% 30.11 in 10.0 mi East 11.5 mph - N/A   Clear
1:35 PM 69.8 °F 53.6 °F 56% 30.10 in 10.0 mi ESE 10.4 mph - N/A   Clear
1:55 PM 69.8 °F 51.8 °F 53% 30.10 in 10.0 mi ESE 11.5 mph - N/A   Clear
2:15 PM 69.8 °F 51.8 °F 53% 30.09 in 10.0 mi East 9.2 mph 18.4 mph N/A   Clear
2:35 PM 68.0 °F 51.8 °F 56% 30.09 in 10.0 mi ESE 10.4 mph - N/A   Clear
3:16 PM 68.0 °F 50.0 °F 52% 30.08 in 10.0 mi ESE 15.0 mph - N/A   Clear
3:36 PM 68.0 °F 50.0 °F 52% 30.07 in 10.0 mi ESE 13.8 mph - N/A   Clear
3:56 PM 68.0 °F 48.2 °F 49% 30.07 in 10.0 mi ESE 17.3 mph - N/A   Clear
4:16 PM 68.0 °F 48.2 °F 49% 30.07 in 10.0 mi ESE 16.1 mph 20.7 mph N/A   Clear
4:36 PM 68.0 °F 48.2 °F 49% 30.07 in 10.0 mi ESE 16.1 mph 21.9 mph N/A   Clear
4:56 PM 66.2 °F 48.2 °F 52% 30.07 in 10.0 mi ESE 17.3 mph - N/A   Clear
5:16 PM 66.2 °F 46.4 °F 49% 30.07 in 10.0 mi ESE 16.1 mph 21.9 mph N/A   Clear
5:31 PM 66.2 °F 46.4 °F 49% 30.07 in 10.0 mi ESE 12.7 mph 19.6 mph N/A   Clear
5:51 PM 66.2 °F 46.4 °F 49% 30.06 in 10.0 mi ESE 13.8 mph 18.4 mph N/A   Clear
6:11 PM 66.2 °F 46.4 °F 49% 30.06 in 10.0 mi ESE 13.8 mph - N/A   Clear
6:32 PM 66.2 °F 46.4 °F 49% 30.06 in 10.0 mi ESE 10.4 mph 18.4 mph N/A   Clear
6:52 PM 66.2 °F 46.4 °F 49% 30.06 in 10.0 mi ESE 12.7 mph 20.7 mph N/A   Clear
7:12 PM 64.4 °F 44.6 °F 49% 30.06 in 10.0 mi ESE 13.8 mph 20.7 mph N/A   Clear
7:32 PM 64.4 °F 44.6 °F 49% 30.06 in 10.0 mi ESE 15.0 mph 23.0 mph N/A   Clear
7:52 PM 62.6 °F 46.4 °F 55% 30.07 in 10.0 mi ESE 12.7 mph 18.4 mph N/A   Clear
8:12 PM 62.6 °F 46.4 °F 55% 30.06 in 10.0 mi ESE 12.7 mph 19.6 mph N/A   Clear
8:32 PM 62.6 °F 46.4 °F 55% 30.06 in 10.0 mi ESE 8.1 mph 16.1 mph N/A   Clear
8:52 PM 62.6 °F 46.4 °F 55% 30.06 in 10.0 mi ESE 11.5 mph - N/A   Clear
9:12 PM 62.6 °F 46.4 °F 55% 30.05 in 10.0 mi ESE 15.0 mph 20.7 mph N/A   Clear
9:33 PM 62.6 °F 46.4 °F 55% 30.06 in 10.0 mi ESE 13.8 mph 18.4 mph N/A   Clear
9:53 PM 62.6 °F 46.4 °F 55% 30.06 in 10.0 mi East 12.7 mph 19.6 mph N/A   Clear
10:13 PM 62.6 °F 48.2 °F 59% 30.05 in 10.0 mi East 12.7 mph 16.1 mph N/A   Clear
10:33 PM 62.6 °F 48.2 °F 59% 30.05 in 10.0 mi East 10.4 mph - N/A   Clear
10:53 PM 62.6 °F 48.2 °F 59% 30.05 in 10.0 mi East 9.2 mph - N/A   Clear
11:13 PM 60.8 °F 48.2 °F 63% 30.05 in 10.0 mi East 5.8 mph - N/A   Clear
11:33 PM 60.8 °F 48.2 °F 63% 30.05 in 10.0 mi East 8.1 mph - N/A   Clear